sat.trackr.live / text

‹ back to catalog

HAWK-14C

NORAD 68441 · 2026-067AB

PAYLOAD ACTIVE UNKNOWN

§ Identity

Operator
Country
US
Launch date
2026-03-30
Launch site
AFWTR
Launch vehicle
Mass (kg)
RCS (m²)

External: N2YO · Heavens-Above · Gunter

§ Orbital elements

Epoch: 2026-05-25T03:30:06.375168Z

Period
94.86 min
Inclination
97.4469°
Eccentricity
0.0003815
Mean motion
15.17996171 rev/d
Perigee alt
509.3 km
Apogee alt
514.5 km
Semi-major
6,890.0 km
B*
1.9381e-4
RAAN
103.8535°
Arg perigee
128.9091°
Mean anomaly
231.2484°
Rev number
844

§ Raw data

HAWK-14C1 68441U 26067AB  26145.14590712  .00003873  00000+0  19381-3 0  99962 68441  97.4469 103.8535 0003815 128.9091 231.2484 15.17996171  8443

JSON: /api/v1/satellites/68441 · /tle

For live sub-satellite position, see the globe view (requires WebGL).

§ Visibility from observer

Set your observer location to see the next 7 days of passes ≥ 10°. The values pass through the URL so the page stays shareable.

No JS? Fill the form by hand. The geolocation button needs JavaScript.